User: anonymous   Login
Location: Skalnate Pleso
(49.1889°N, 20.2450°E)
Time: 04:08:20
(UTC+02:00)
Language:

Iridium 45 - Orbit

View from above orbital plane
View from above orbital plane
View from above satellite
View from above satellite

Ground track
Ground track

The orbit data is extracted from the following two-line orbital elements,

1 25104U 97082A   15148.28296761  .00000265  00000-0  87882-4 0  9998
2 25104 087.0289 239.6734 0002194 095.9721 264.1725 14.34223793912749
Epoch (UTC): 28 May 2015 06:47:28
Eccentricity: 0.0002194
inclination: 87.0289°
perigee height: 776 km
apogee height: 779 km
right ascension of ascending node: 239.6734°
argument of perigee: 95.9721°
revolutions per day: 14.34223793
mean anomaly at epoch: 264.1725°
orbit number at epoch: 91274

The dashed part of the orbit path shows where the satellite is in the earth's shadow,  

DLR